Погода в Уругуаяне

Бразилия     29°46′17″S   57°04′47″W
темп.,
°C
ветер,
м/с
пор.,
м/с
влажн.,
%
обл.,
%
осадки,
мм/ч
давл.,
гПа
погр.,
м
26 февраля, пт
пт2600:00+21вюв47460 0.0 1013108
03:00+19вюв512560 0.0 1013297
06:00+17вюв49740 0.0 1013195
09:00+22в69670 0.0 1014344
12:00+29в55500 0.0 10131001
15:00+33в45350 0.0 10112069
18:00+32юв57410 0.0 1009812
21:00+26вюв614520 0.0 1012435
27 февраля, сб
сб2700:00+25в816561 0.0 1013602
03:00+21в715630 0.0 1014440
06:00+19в512740 0.0 1015313
09:00+22в610720 0.0 1017405
12:00+30в67510 0.0 1016889
15:00+33в57390 0.0 10132183
18:00+31вюв7104431 0.0 10121044
21:00+27в8155027 0.0 1013701
28 февраля, вс
вс2800:00+24в1018640 0.0 1015686
03:00+21в814720 0.0 1014525
06:00+19в613790 0.0 1015405
09:00+23всв710650 0.0 1016542
12:00+30всв67470 0.0 10151010
15:00+33в56350 0.0 10112085
18:00+31вюв68400 0.0 10091168
21:00+26вюв614530 0.0 1011405
1 марта, пн
пн100:00+24в8156743 0.0 1012612
03:00+21в6128251 0.0 1011438
06:00+20в511890 0.0 1011316
09:00+23в68750 0.0 1011451
12:00+30в44490 0.0 10101114
15:00+34вюв33320 0.0 10072033
18:00+33юв34340 0.0 10061434
21:00+27юв59450 0.0 1007177
2 марта, вт
вт200:00+25в715673 0.0 1009533
03:00+23в611801 0.0 1009384
06:00+21в510850 0.0 1010296
09:00+24в68760 0.0 1011384
12:00+31в44480 0.0 10101143
15:00+34юв33310 0.0 10082421
18:00+34ююв23320 0.0 10071922
21:00+27в410497 0.0 1009213